DW4892 Weather Reports


Display with metric or nautical units.
time (UTC)temp
F
wind
direction
speed
MPH
gust
MPH
rain 1hr
in
rain 24hr
in
rain mn
in
humidity
%
barometer
mb
20260902083016 62 194 0.0 1.0 0.00 0.00 0.00 56 1003.8
20260902081532 62 185 0.0 0.0 0.00 0.00 0.00 55 1003.9
20260902080032 62 185 0.0 1.0 0.00 0.00 0.00 57 1004.0
20260902074523 64 275 0.0 2.0 0.00 0.00 0.00 52 1004.0
20260902073019 64 292 0.0 1.0 0.00 0.00 0.00 52 1003.9
20260902071512 64 229 0.0 1.0 0.00 0.00 0.00 53 1003.8
20260902070027 64 288 0.0 2.0 0.00 0.00 0.00 55 1003.8
20260902064522 64 185 0.0 2.0 0.00 0.00 0.00 56 1003.9
20260902063018 64 325 0.0 1.0 0.00 0.00 0.00 54 1003.9
20260902061531 65 190 0.0 1.0 0.00 0.00 0.00 53 1003.9
20260902060023 65 190 0.0 1.0 0.00 0.00 0.00 52 1003.9
20260902054522 64 196 0.0 1.0 0.00 0.00 0.00 60 1003.9
20260902053056 66 210 0.0 2.0 0.00 0.00 0.00 59 1004.1
20260902051529 67 174 0.0 4.0 0.00 0.00 0.00 56 1003.8
20260902050024 68 180 1.0 5.0 0.00 0.00 0.00 56 1003.7
20260902044518 68 218 1.0 6.0 0.00 0.00 0.00 57 1003.8
20260902043013 68 207 1.0 5.0 0.00 0.00 0.00 58 1004.0
20260902041528 70 213 3.0 9.0 0.00 0.00 0.00 54 1004.1
20260902040022 70 210 2.0 6.0 0.00 0.00 0.00 52 1004.3
20260902034519 69 180 1.0 3.0 0.00 0.00 0.00 52 1004.3
20260902033018 70 204 0.0 3.0 0.00 0.00 0.00 51 1004.3
20260902031530 71 180 1.0 3.0 0.00 0.00 0.00 49 1004.2
20260902030025 71 190 1.0 4.0 0.00 0.00 0.00 50 1004.2
20260902024518 69 244 1.0 4.0 0.00 0.03 0.00 53 1003.9
20260902023011 68 69 0.0 2.0 0.00 0.03 0.00 55 1003.5
20260902021534 70 43 1.0 3.0 0.00 0.03 0.00 52 1003.2
20260902020026 70 82 0.0 1.0 0.00 0.03 0.00 52 1003.0
20260902014533 69 61 0.0 1.0 0.00 0.03 0.00 51 1003.0
20260902013056 70 62 0.0 3.0 0.00 0.03 0.00 48 1002.9
20260902011534 72 52 1.0 3.0 0.00 0.03 0.00 47 1002.9
20260902010041 73 56 1.0 3.0 0.00 0.03 0.00 45 1002.9
20260902004521 75 50 1.0 4.0 0.00 0.03 0.00 42 1002.8
20260902003013 76 38 2.0 6.0 0.00 0.03 0.00 38 1002.7
20260902001530 78 48 2.0 6.0 0.00 0.03 0.00 35 1002.7
20260902000036 79 72 2.0 7.0 0.00 0.03 0.00 34 1002.8
20260901234543 78 34 2.0 8.0 0.00 0.03 0.00 35 1002.8
20260901233013 79 54 2.0 6.0 0.00 0.03 0.00 36 1002.6
20260901231543 80 82 1.0 7.0 0.00 0.03 0.00 34 1002.8
20260901230027 79 70 2.0 8.0 0.00 0.03 0.00 35 1002.7
20260901224525 81 48 2.0 9.0 0.00 0.03 0.00 33 1002.6
20260901223029 82 48 2.0 6.0 0.00 0.03 0.00 28 1002.6
20260901221523 83 82 2.0 7.0 0.00 0.03 0.00 26 1002.7
20260901220033 83 35 1.0 4.0 0.00 0.03 0.00 28 1003.0
20260901214522 81 96 1.0 5.0 0.00 0.03 0.00 29 1003.2
20260901213020 82 155 1.0 4.0 0.00 0.03 0.00 28 1003.3
20260901211515 85 200 2.0 7.0 0.00 0.03 0.00 26 1003.5
20260901210031 85 304 1.0 6.0 0.00 0.03 0.00 30 1003.6
20260901204533 86 142 1.0 5.0 0.00 0.03 0.00 27 1003.7
20260901203022 84 165 1.0 8.0 0.00 0.03 0.00 31 1004.0
20260901201515 84 171 2.0 6.0 0.00 0.03 0.00 30 1004.0
20260901200046 85 208 1.0 9.0 0.00 0.03 0.00 31 1004.1
20260901194523 84 131 2.0 5.0 0.00 0.03 0.00 29 1004.3
20260901193021 85 185 2.0 8.0 0.00 0.03 0.00 30 1004.5
20260901191521 84 158 1.0 6.0 0.00 0.03 0.00 29 1004.8
20260901190022 82 165 2.0 9.0 0.00 0.03 0.00 33 1004.9
20260901184530 84 151 3.0 10.0 0.00 0.03 0.00 31 1005.1
20260901183037 83 280 1.0 8.0 0.00 0.03 0.00 33 1005.2
20260901181520 82 176 1.0 5.0 0.00 0.03 0.00 36 1005.5
20260901180014 78 185 2.0 5.0 0.00 0.03 0.00 41 1005.7
20260901174529 78 149 2.0 6.0 0.00 0.03 0.00 41 1006.1
20260901173026 77 284 1.0 5.0 0.00 0.03 0.00 43 1006.2
20260901171523 76 222 1.0 5.0 0.00 0.03 0.00 52 1006.3
20260901170017 73 288 1.0 6.0 0.00 0.03 0.00 53 1006.3
20260901164512 68 128 0.0 3.0 0.00 0.03 0.00 57 1006.5
20260901163026 68 165 1.0 2.0 0.00 0.03 0.00 56 1006.4
20260901161526 68 156 1.0 3.0 0.00 0.03 0.00 58 1006.3
20260901160017 67 175 1.0 3.0 0.00 0.03 0.00 59 1006.2
20260901154540 66 159 1.0 4.0 0.00 0.03 0.00 64 1006.1
20260901153038 65 128 1.0 4.0 0.00 0.03 0.00 62 1006.0
20260901151525 65 168 2.0 9.0 0.00 0.03 0.00 62 1006.0
20260901150019 64 180 1.0 4.0 0.00 0.03 0.00 64 1005.8
20260901144526 63 180 1.0 3.0 0.00 0.03 0.00 67 1005.8
20260901143028 62 185 0.0 2.0 0.00 0.03 0.00 70 1005.8
20260901141525 62 195 1.0 2.0 0.00 0.03 0.00 71 1005.5
20260901140023 61 185 1.0 2.0 0.00 0.03 0.00 73 1005.4
20260901134519 61 196 0.0 2.0 0.00 0.03 0.00 73 1005.4
20260901133023 61 180 0.0 4.0 0.00 0.03 0.00 73 1005.4
20260901131529 60 185 0.0 1.0 0.00 0.03 0.00 76 1005.0
20260901130020 59 172 0.0 2.0 0.00 0.03 0.00 77 1004.8
20260901124520 59 281 1.0 2.0 0.00 0.03 0.00 78 1004.7
20260901123012 59 169 0.0 2.0 0.00 0.03 0.00 78 1004.3
20260901121507 59 201 0.0 1.0 0.00 0.03 0.00 79 1004.3
20260901120027 59 211 0.0 1.0 0.00 0.03 0.00 78 1004.3
20260901114518 59 190 0.0 3.0 0.00 0.03 0.00 78 1004.4
20260901113017 58 190 1.0 3.0 0.00 0.03 0.00 79 1004.3
20260901111531 58 190 1.0 3.0 0.00 0.03 0.00 80 1004.4
20260901110036 57 230 0.0 1.0 0.00 0.03 0.00 81 1004.5
20260901104521 57 236 0.0 0.0 0.00 0.03 0.00 82 1004.8
20260901103015 58 237 0.0 0.0 0.00 0.03 0.00 80 1004.8
20260901101529 58 237 0.0 0.0 0.00 0.03 0.00 80 1005.0
20260901100028 58 229 0.0 1.0 0.00 0.03 0.00 85 1005.0
20260901094527 57 229 0.0 1.0 0.00 0.03 0.00 83 1005.2
20260901093015 57 199 0.0 1.0 0.00 0.03 0.00 84 1005.5
20260901091544 57 209 0.0 1.0 0.00 0.03 0.00 83 1005.5
20260901090026 58 209 0.0 1.0 0.00 0.03 0.00 82 1005.4
20260901084520 58 217 0.0 1.0 0.00 0.03 0.00 81 1005.7